Simultaneous Nadir Overpasses (SNOs) Predictions

Prediction of SNOs between METOP-A and TERRA Satellite Orbit:

Table of predicted SNOs for the next 14.0 days since TLE Epoch: 7/17/2021
Index Date (METOP-A) Time (METOP-A) Lat,Lon (METOP-A) SZA (METOP-A ) Date (TERRA) Time (TERRA) Lat,Lon (TERRA) SZA (TERRA ) Distance(km) Time Diff (sec)
1 07/19/2021 17:06:53 81.36, -32.98 62.98 07/19/2021 17:08:06 81.23, -32.43 62.98 18.03 73
2 07/19/2021 17:57:28 -81.29, 136.43 116.84 07/19/2021 17:57:30 -81.29, 136.24 116.87 3.20 2
3 07/19/2021 18:48:09 81.29, -56.19 63.17 07/19/2021 18:46:56 81.29, -56.03 63.16 2.69 73
4 07/22/2021 12:41:09 81.29, 35.35 63.68 07/22/2021 12:42:14 81.30, 35.36 63.72 1.33 65
5 07/22/2021 13:31:49 -81.28,-157.13 116.30 07/22/2021 13:31:41 -81.30,-157.06 116.29 2.11 8
6 07/25/2021 08:15:30 81.29, 101.75 64.26 07/25/2021 08:16:26 81.29, 101.62 64.27 2.26 56
7 07/25/2021 09:06:10 -81.28, -90.71 115.72 07/25/2021 09:05:53 -81.29, -90.78 115.73 1.63 17
8 07/28/2021 03:49:50 81.29, 168.13 64.88 07/28/2021 03:50:36 81.30, 168.22 64.93 2.23 46
9 07/28/2021 04:40:31 -81.29, -24.68 115.12 07/28/2021 04:40:04 -81.28, -24.53 115.13 2.93 27
10 07/30/2021 23:24:11 81.29,-125.49 65.55 07/30/2021 23:24:48 81.29,-125.58 65.56 1.48 37



Historial Predications of SNOs between METOP-A and TERRA
